| time (UTC) | temp C | wind direction | speed KPH | gust KPH | rain 1hr cm | rain 24hr cm | rain mn cm | humidity % | barometer mb |
| 20260509030218 | 24 | 0 | 0.0 | 0.0 | 0.00 | 0.03 | 0.03 | 90 | 1009.2 |
| 20260509023003 | 23 | 0 | 0.0 | 0.0 | 0.00 | 0.03 | 0.03 | 90 | 1008.6 |
| 20260509020004 | 23 | 148 | 0.0 | 1.6 | 0.00 | 0.03 | 0.03 | 90 | 1008.5 |
| 20260509013217 | 23 | 0 | 0.0 | 0.0 | 0.00 | 0.03 | 0.03 | 89 | 1008.4 |
| 20260509010004 | 23 | 0 | 0.0 | 0.0 | 0.00 | 0.03 | 0.03 | 89 | 1008.6 |
| 20260509003003 | 23 | 149 | 0.0 | 6.4 | 0.00 | 0.03 | 0.03 | 88 | 1008.6 |
| 20260509000004 | 24 | 292 | 0.0 | 4.8 | 0.00 | 0.03 | 0.03 | 87 | 1008.3 |
| 20260508233003 | 24 | 0 | 0.0 | 0.0 | 0.00 | 0.03 | 0.03 | 85 | 1008.9 |
| 20260508230003 | 24 | 130 | 0.0 | 4.8 | 0.00 | 0.03 | 0.03 | 84 | 1008.7 |
| 20260508223003 | 24 | 13 | 0.0 | 3.2 | 0.00 | 0.03 | 0.03 | 84 | 1008.3 |
| 20260508220004 | 24 | 0 | 0.0 | 0.0 | 0.00 | 0.03 | 0.03 | 84 | 1008.7 |
| 20260508213004 | 24 | 106 | 0.0 | 3.2 | 0.00 | 0.03 | 0.03 | 84 | 1009.1 |
| 20260508210003 | 24 | 120 | 0.0 | 3.2 | 0.00 | 0.03 | 0.03 | 85 | 1009.2 |
| 20260508203003 | 23 | 114 | 0.0 | 6.4 | 0.00 | 0.03 | 0.03 | 86 | 1009.0 |
| 20260508200004 | 23 | 66 | 0.0 | 1.6 | 0.00 | 0.03 | 0.03 | 87 | 1009.9 |
| 20260508193217 | 22 | 326 | 0.0 | 1.6 | 0.00 | 0.03 | 0.03 | 88 | 1010.2 |
| 20260508190218 | 22 | 141 | 0.0 | 4.8 | 0.00 | 0.03 | 0.03 | 91 | 1010.1 |
| 20260508183003 | 21 | 0 | 0.0 | 0.0 | 0.00 | 0.03 | 0.03 | 91 | 1010.5 |
| 20260508180004 | 20 | 0 | 0.0 | 0.0 | 0.00 | 0.03 | 0.03 | 90 | 1011.1 |
| 20260508173003 | 20 | 0 | 0.0 | 0.0 | 0.00 | 0.03 | 0.03 | 89 | 1011.4 |
| 20260508170004 | 21 | 27 | 0.0 | 3.2 | 0.00 | 0.03 | 0.03 | 89 | 1011.4 |
| 20260508163003 | 20 | 0 | 0.0 | 0.0 | 0.00 | 0.03 | 0.03 | 88 | 1012.2 |
| 20260508160004 | 20 | 356 | 0.0 | 4.8 | 0.00 | 0.03 | 0.03 | 88 | 1012.7 |
| 20260508153003 | 20 | 350 | 0.0 | 8.0 | 0.00 | 0.03 | 0.03 | 89 | 1012.5 |
| 20260508150217 | 20 | 304 | 0.0 | 1.6 | 0.03 | 0.03 | 0.03 | 89 | 1012.3 |
| 20260508143003 | 20 | 355 | 0.0 | 1.6 | 0.03 | 0.03 | 0.03 | 89 | 1012.4 |
| 20260508140004 | 20 | 0 | 0.0 | 0.0 | 0.00 | 0.00 | 0.00 | 88 | 1012.4 |
| 20260508133003 | 20 | 0 | 0.0 | 0.0 | 0.00 | 0.00 | 0.00 | 88 | 1012.4 |
| 20260508130004 | 20 | 0 | 0.0 | 0.0 | 0.00 | 0.00 | 0.00 | 88 | 1012.5 |
| 20260508123004 | 20 | 333 | 0.0 | 4.8 | 0.00 | 0.00 | 0.00 | 90 | 1012.4 |
| 20260508120004 | 20 | 323 | 0.0 | 4.8 | 0.00 | 0.00 | 0.00 | 90 | 1012.2 |
| 20260508113004 | 20 | 0 | 0.0 | 0.0 | 0.00 | 0.00 | 0.00 | 90 | 1012.2 |
| 20260508110004 | 20 | 0 | 0.0 | 0.0 | 0.00 | 0.00 | 0.00 | 90 | 1012.3 |
| 20260508103004 | 21 | 0 | 0.0 | 0.0 | 0.00 | 0.00 | 0.00 | 89 | 1011.4 |
| 20260508100217 | 21 | 0 | 0.0 | 0.0 | 0.00 | 0.00 | 0.00 | 88 | 1011.8 |
| 20260508093003 | 21 | 0 | 0.0 | 0.0 | 0.00 | 0.00 | 0.00 | 86 | 1012.0 |
| 20260508090004 | 22 | 0 | 0.0 | 0.0 | 0.00 | 0.00 | 0.00 | 82 | 1012.0 |
| 20260508083004 | 22 | 0 | 0.0 | 0.0 | 0.00 | 0.00 | 0.00 | 80 | 1012.0 |
| 20260508080004 | 22 | 0 | 0.0 | 0.0 | 0.00 | 0.00 | 0.00 | 80 | 1011.9 |
| 20260508073003 | 22 | 0 | 0.0 | 0.0 | 0.00 | 0.00 | 0.00 | 79 | 1012.1 |
| 20260508070004 | 22 | 0 | 0.0 | 0.0 | 0.00 | 0.00 | 0.00 | 78 | 1012.2 |
| 20260508063218 | 23 | 29 | 0.0 | 3.2 | 0.00 | 0.00 | 0.00 | 78 | 1012.3 |
| 20260508060003 | 23 | 351 | 0.0 | 4.8 | 0.00 | 0.00 | 0.00 | 79 | 1012.9 |
| 20260508053217 | 23 | 44 | 0.0 | 1.6 | 0.00 | 0.00 | 0.00 | 79 | 1012.4 |
| 20260508050004 | 23 | 22 | 0.0 | 3.2 | 0.00 | 0.00 | 0.00 | 77 | 1012.2 |
| 20260508043004 | 23 | 0 | 0.0 | 0.0 | 0.00 | 0.00 | 0.00 | 76 | 1011.8 |
| 20260508040219 | 24 | 0 | 0.0 | 0.0 | 0.00 | 0.00 | 0.00 | 74 | 1013.0 |
| 20260508033003 | 24 | 2 | 0.0 | 1.6 | 0.00 | 0.00 | 0.00 | 73 | 1013.3 |